Regional Weather Roundup
Issued by NWS

Home | Current Version | Previous Version | Graphics & Text | Print | Product List | Glossary On
Versions: 1 2 3 4 5 6 7 8 9 10 11 12 13 14 15 16 17 18 19 20 21 22 23 24 25 26 27 28 29 30 31 32 33 34 35 36 37 38 39 40 41 42 43 44 45 46 47 48 49 50
000
ASUS44 KMEG 031100
RWRTN
TENNESSEE HOURLY STATE WEATHER ROUNDUP
NATIONAL WEATHER SERVICE MEMPHIS TN
600 AM CDT FRI JUL 03 2015

TNZ002-004-019-021-049-052-054-088>092-031200-
WEST TENNESSEE

CITY           SKY/WX    TMP DP  RH WIND       PRES   REMARKS
MEMPHIS INTL   LGT RAIN  76  72  87 SW6       29.90R FOG
NWS MEMPHIS      N/A     72 N/A N/A MISG        N/A
JACKSON        MOCLDY    71  68  90 CALM      29.89R
DYERSBURG        N/A    N/A N/A N/A MISG        N/A
PARIS          PTCLDY    66  66 100 SW3       29.88R
LEXINGTON      MOCLDY    70  68  94 CALM      29.88S
$$

TNZ008-025-027-028-033-062-065-066-031200-
NORTH MIDDLE TENNESSEE

CITY           SKY/WX    TMP DP  RH WIND       PRES   REMARKS
NASHVILLE      CLOUDY    72  72 100 SW3       29.88R
CLARKSVILLE    TSTM      72  70  93 W5        29.85S
COOKEVILLE     MOCLDY    73  73 100 SW6       29.89R
CROSSVILLE     CLOUDY    71  68  90 W5        29.94S
$$

TNZ061-075-076-078-094-096-097-031200-
SOUTH MIDDLE TENNESSEE

CITY           SKY/WX    TMP DP  RH WIND       PRES   REMARKS
FAYETTEVILLE   MOCLDY    70  70 100 SW6       29.93R
TULLAHOMA      CLOUDY    70  68  94 W8        29.94R
WINCHESTER     CLOUDY    72  70  94 CALM      29.94R
COLUMBIA       MOCLDY    72  70  94 W9        29.89R
SHELBYVILLE    MOCLDY   N/A N/A N/A MISG        N/A
$$

TNZ017-018-042-046-047-031200-
NORTHEAST TENNESSEE

CITY           SKY/WX    TMP DP  RH WIND       PRES   REMARKS
TRI CITIES     CLOUDY    68  67  96 CALM      29.95R
ELIZABETHTON   CLOUDY    64  64 100 NE3       29.97R
$$

TNZ012-013-036-069-073-074-031200-
CENTRAL EAST TENNESSEE

CITY           SKY/WX    TMP DP  RH WIND       PRES   REMARKS
KNOXVILLE      NOT AVBL
OAK RIDGE      CLOUDY    70  68  93 SW3       29.92R
GATLINBURG     CLOUDY    68  66  94 W3        29.92S
$$

TNZ083-085-099-031200-
SOUTHEAST TENNESSEE

CITY           SKY/WX    TMP DP  RH WIND       PRES   REMARKS
CHATTANOOGA    MOCLDY    73  71  93 CALM      29.91R
$$

SKY/WX REPORTED AS FAIR MEANS FEW OR NO CLOUDS BELOW
12 THOUSAND FEET.




USA.gov is the U.S. government's official web portal to all federal, state and local government web resources and services.